Home   Weather   Walnut Creek   Past weeks

Flag for USA Past Weather in Walnut Creek, California, USA — Yesterday and Last 2 Weeks

Now
55 °F

Clear.


Feels Like: 52 °F
Forecast: 54 / 69 °F
Wind: 12 mph from Southwest

Location: Buchanan Field

Current Time: Sep 30, 2016 at 3:06:24 AM

Latest Report: Sep 30, 2016 at 1:53 AM


Visibility: 10 mi

Pressure: 30.03 "Hg

Humidity: 74%

Dew Point: 47 °F

Location of Walnut CreekLocation

Past Weather in Walnut Creek — Graph

°F

Walnut Creek Temperature Yesterday

Maximum temperature yesterday: 80 °F (at 2:53 PM)
Minimum temperature yesterday: 56 °F (at 4:53 AM)
Average temperature yesterday: 65 °F

High & Low Weather Summary for the Past Weeks

 TemperatureHumidityPressure
High99 °F (Sep 18, 4:53 PM)84% (Sep 17, 2:53 AM)30.11 "Hg (Sep 17, 2:53 AM)
Low53 °F (Sep 16, 4:53 AM)7% (Sep 26, 5:53 PM)29.74 "Hg (Sep 27, 5:53 PM)
Average72 °F45%29.92 "Hg
* Reported Sep 15 1:53 AM — Sep 30 1:53 AM, Walnut Creek, Weather by CustomWeather, © 2016

Note: Actual official high and low records may vary slightly from our data, if they occured in-between our weather recording intervals... More about our weather records

Advertising

Walnut Creek Weather History for the Previous 24 Hours

Scroll right to see more
 ConditionsComfort  
Time TempWeatherWind HumidityBarometerVisibility
1:53 AM
Fri, Sep 30
55 °FClear.12 mph74%30.03 "Hg10 mi
12:53 AM56 °FClear.12 mph72%30.02 "Hg10 mi
11:53 PM
Thu, Sep 29
57 °FClear.9 mph69%30.03 "Hg10 mi
10:53 PM58 °FClear.8 mph67%30.02 "Hg10 mi
9:53 PM59 °FClear.9 mph64%30.01 "Hg10 mi
8:53 PM62 °FClear.10 mph58%29.99 "Hg10 mi
7:53 PM66 °FClear.12 mph49%29.97 "Hg10 mi
6:53 PM71 °FClear.5 mph29%29.96 "Hg10 mi
5:53 PM75 °FSunny.13 mph26%29.96 "Hg10 mi
4:53 PM79 °FSunny.12 mph20%29.96 "Hg10 mi
3:53 PM80 °FSunny.12 mph23%29.97 "Hg10 mi
2:53 PM80 °FSunny.13 mph26%29.97 "Hg10 mi
1:53 PM79 °FSunny.13 mph30%29.98 "Hg10 mi
12:53 PM76 °FSunny.8 mph40%30.00 "Hg10 mi
11:53 AM70 °FSunny.15 mph51%30.01 "Hg10 mi
10:53 AM70 °FSunny.3 mph49%30.01 "Hg10 mi
9:53 AM65 °FSunny.7 mph59%30.01 "Hg10 mi
8:53 AM61 °FSunny.8 mph67%30.00 "Hg10 mi
7:53 AM57 °FSunny.3 mph78%29.99 "Hg10 mi
6:53 AM56 °FPassing clouds.7 mph77%29.97 "Hg10 mi
5:53 AM56 °FClear.8 mph77%29.95 "Hg10 mi
4:53 AM56 °FClear.7 mph75%29.94 "Hg10 mi
3:53 AM57 °FClear.6 mph74%29.93 "Hg10 mi
Weather by CustomWeather, © 2016

See weather overviewHow to use our weather pages